Location: Schommer Observatory
(40.5200°N, 74.4500°W)
Time: 17:48:20
(UTC-05:00)

OTV 5 (USA 277) - Pass Details

Date: 19 November 2017
Orbit: 404 x 417 km, 43.0° (Epoch: 07 September)

Event Time Altitude Azimuth Distance (km) Brightness Sun altitude
Exits shadow 05:48:41 17° 264° (W) 1,095 ? -11.6°
Maximum altitude 05:50:40 33° 209° (SSW) 700 ? -11.2°
Drops below altitude 10° 05:53:39 10° 143° (SE) 1,449 ? -10.7°
Sets 05:55:50 0° 133° (SE) 2,305 ? -10.3°
